Starlink 31297

operational
NORAD ID: 59158 Int'l Des: 2024-044 Owner: SPXS Country: US Constellation: starlink
LEOCIRCULAR

关于 Starlink 31297

正在加载描述...

实时位置

正在加载3D地球...

即将过境

高度历史

Altitude vs Time

uPlot chart will show altitude changes over time

两行轨道根数

1 59158U 24044G 25303.50287642 .00000702 00000-0 35013-4 0 9994
2 59158 42.9994 122.3808 0001221 248.3120 111.7602 15.27580064 93689
Epoch: Oct 30, 2025 • Age: 20 hours

当前状态

高度 482.1 km
速度 7.63 km/s
星下点 11.24°N, 131.49°E
发射日期 Mar 4, 2024
运行时间 1.6 years
类型 internet

技术详情

分类 Payload
质量 730.00 kg
干质量 700.00 kg
总质量 730.00 kg
长度 0.30 m
直径 4.10 m
跨度 29.00 m
形状 Box + pan
制造商 SPXS
平台类型 Starlink V2M
阶段状态 In Orbit
所有者/国家 SPXS/US

大型星座

Loading constellations...